[[{"header":{"parameterUnit":"m.s-1","parameterCategory":1,"la1":30.2992,"la2":30.254,"lo1":-89.0895,"lo2":-89.0443,"dy":0.0025,"dx":0.0025,"nx":19,"ny":19,"refTime":"2026-04-09T21:00:00:Z","depth":0,"parameterNumber":2,"parameterNumberName":"U-component_of_WINDS"},"data":[0,0,0,-1.6617,-1.6621,-1.6762,-1.6762,-1.6966,-1.6968,0,0,0,0,0,0,0,0,0,0,0,-1.6588,-1.6589,-1.6617,-1.6621,-1.6762,-1.6762,-1.6965,-1.6968,0,0,0,0,0,0,0,0,0,0,0,-1.6587,-1.6589,-1.6591,-1.6622,-1.6762,-1.6763,-1.6965,-1.6851,0,0,0,0,0,0,0,0,0,0,-1.671,-1.6694,-1.6588,-1.6591,-1.6622,-1.6762,-1.6763,-1.6845,-1.6858,-1.6911,0,-1.696,0,-1.6967,-1.6983,-1.6983,0,0,0,-1.6613,-1.6683,-1.671,-1.6591,-1.6624,-1.6762,-1.6696,-1.6852,-1.6867,-1.6928,-1.6962,-1.6969,-1.697,-1.6984,-1.6985,-1.7317,-1.7318,0,0,-1.6605,-1.662,-1.67,-1.672,-1.6698,-1.6692,-1.67,-1.686,-1.6899,-1.6963,-1.6974,-1.6974,-1.6985,-1.6987,-1.7315,-1.7317,0,0,0,-1.6588,-1.6615,-1.6637,-1.6712,-1.6736,-1.6696,-1.6706,-1.6892,-1.6898,-1.6976,-1.6976,-1.6987,-1.6989,-1.7313,-1.7316,-1.7429,0,0,0,-1.6583,-1.6605,-1.6634,-1.6645,-1.6733,-1.6816,-1.6735,-1.6887,-1.6905,-1.6975,-1.6987,-1.6992,-1.731,-1.7314,-1.7421,-1.7481,0,0,0,-1.6574,-1.6604,-1.6628,-1.6646,-1.6707,-1.6812,-1.6827,-1.689,-1.6905,-1.6984,-1.6992,-1.7309,-1.7313,-1.7414,-1.7469,-1.7575,0,0,0,-1.657,-1.6726,-1.663,-1.6805,-1.6706,-1.688,-1.6826,-1.6955,-1.7035,-1.6988,-1.7311,-1.7315,-1.7412,-1.7462,-1.7568,-1.7669,-1.7712,0,0,-1.6776,-1.6751,-1.6853,-1.6771,-1.6966,-1.6857,-1.7069,-1.7128,-1.7122,-1.7252,-1.726,-1.7423,-1.7468,-1.7573,-1.7939,-1.7973,0,0,0,-1.6923,-1.6997,-1.7045,-1.7122,-1.7169,-1.7217,-1.7241,-1.7263,-1.7373,-1.7191,-1.7487,-1.7514,-1.7575,-1.7623,-1.7652,-1.7705,-1.7337,-1.7336,-1.7336,-1.724,-1.7222,-1.7389,-1.7389,-1.7464,-1.7487,-1.7547,-1.7581,-1.7542,-1.7612,-1.7652,-1.7876,-1.7932,-1.7954,-1.8009,-1.7701,-1.7701,-1.7702,-1.7702,-1.7542,-1.7646,-1.7588,-1.773,-1.7711,-1.7831,-1.786,-1.7828,-1.7938,-1.7844,-1.7897,-1.7799,-1.7992,-1.804,-1.771,-1.7709,-1.7708,-1.7707,-1.7706,-1.7751,-1.7798,-1.782,-1.793,-1.8016,-1.8009,-1.8118,-1.8096,-1.8076,-1.8128,-1.817,-1.8168,-1.8167,-1.8148,-1.8149,-1.815,-1.815,-1.8151,-1.8152,-1.7961,-1.7982,-1.8076,-1.814,-1.8186,-1.8245,-1.8269,-1.8315,-1.8361,-1.8337,-1.8337,-1.8293,-1.8012,-1.7945,-1.8164,-1.8161,-1.816,-1.8159,-1.8158,-1.8282,-1.8205,-1.8351,-1.8398,-1.8471,-1.856,-1.8528,-1.8624,-1.8658,-1.8713,-1.8656,-1.8451,-1.8426,-1.8403,-1.8347,-1.8657,-1.8657,-1.8657,-1.8657,-1.8462,-1.8445,-1.8589,-1.8666,-1.8738,-1.8724,-1.8892,-1.8912,-1.8921,-1.8942,-1.8893,-1.8815,-1.8792,-1.8781,-1.8749,-1.8697,-1.909,-1.909,-1.9091,-1.866,-1.8649,-1.8796,-1.8802,-1.8858,-1.8907,-1.9064,-1.9156,-1.915,-1.9108,-1.8959,-1.8941,-1.8815,-1.8774,-1.8733,-1.8685,-1.8589,0,0]},{"header":{"parameterUnit":"m.s-1","parameterCategory":1,"la1":30.2992,"la2":30.254,"lo1":-89.0895,"lo2":-89.0443,"dy":0.0025,"dx":0.0025,"nx":19,"ny":19,"refTime":"2026-04-09T21:00:00:Z","depth":0,"parameterNumber":3,"parameterNumberName":"V-component_of_WINDS"},"data":[0,0,0,-2.6685,-2.6688,-2.6852,-2.6853,-2.7057,-2.7059,0,0,0,0,0,0,0,0,0,0,0,-2.6635,-2.6636,-2.6685,-2.6689,-2.6852,-2.6853,-2.7057,-2.7059,0,0,0,0,0,0,0,0,0,0,0,-2.6634,-2.6636,-2.6637,-2.6689,-2.6852,-2.6853,-2.7056,-2.6934,0,0,0,0,0,0,0,0,0,0,-2.6776,-2.6728,-2.6635,-2.6637,-2.669,-2.6852,-2.6853,-2.6928,-2.6942,-2.6981,0,-2.7016,0,-2.7041,-2.7072,-2.7073,0,0,0,-2.669,-2.6717,-2.6763,-2.6638,-2.6692,-2.6852,-2.6779,-2.6936,-2.6951,-2.6999,-2.7019,-2.7027,-2.7044,-2.7074,-2.7075,-2.7299,-2.73,0,0,-2.6681,-2.6663,-2.6752,-2.6773,-2.6749,-2.6774,-2.6784,-2.6945,-2.6966,-2.702,-2.7032,-2.7048,-2.7075,-2.7076,-2.7298,-2.7299,0,0,0,-2.6654,-2.6657,-2.6699,-2.6764,-2.6794,-2.6778,-2.679,-2.6959,-2.6974,-2.7034,-2.705,-2.7076,-2.7079,-2.7297,-2.7298,-2.7331,0,0,0,-2.6649,-2.6641,-2.6695,-2.6685,-2.6791,-2.6879,-2.68,-2.6963,-2.6982,-2.7049,-2.7076,-2.708,-2.7296,-2.7297,-2.7328,-2.735,0,0,0,-2.6624,-2.6638,-2.6662,-2.6684,-2.6754,-2.6877,-2.6902,-2.6968,-2.6992,-2.7073,-2.7081,-2.7295,-2.7297,-2.7325,-2.7345,-2.7404,0,0,0,-2.6593,-2.6688,-2.6662,-2.6774,-2.6753,-2.6896,-2.6901,-2.7008,-2.7082,-2.7077,-2.7296,-2.7298,-2.7324,-2.7342,-2.7401,-2.745,-2.747,0,0,-2.6703,-2.6701,-2.6768,-2.6749,-2.6893,-2.6873,-2.7021,-2.7105,-2.7128,-2.724,-2.7246,-2.7329,-2.7345,-2.7403,-2.7581,-2.7596,0,0,0,-2.6797,-2.6845,-2.6887,-2.6957,-2.7023,-2.7082,-2.7145,-2.7175,-2.7271,-2.7183,-2.7366,-2.7376,-2.7411,-2.7436,-2.7448,-2.7479,-2.7308,-2.7308,-2.7308,-2.6928,-2.6953,-2.7065,-2.7109,-2.7176,-2.724,-2.7296,-2.7348,-2.7353,-2.7396,-2.743,-2.7535,-2.7563,-2.7573,-2.7605,-2.7457,-2.7458,-2.7458,-2.7458,-2.7092,-2.7164,-2.7167,-2.7278,-2.7303,-2.7395,-2.7459,-2.7459,-2.7548,-2.7512,-2.7544,-2.7503,-2.7589,-2.7618,-2.7461,-2.746,-2.746,-2.7459,-2.7459,-2.7181,-2.722,-2.7255,-2.7358,-2.7434,-2.7474,-2.7559,-2.7578,-2.7597,-2.7628,-2.7665,-2.7665,-2.7667,-2.7644,-2.7645,-2.7645,-2.7645,-2.7646,-2.7646,-2.726,-2.7299,-2.7369,-2.7447,-2.7493,-2.7557,-2.7619,-2.7665,-2.7721,-2.7728,-2.7728,-2.7728,-2.7592,-2.7558,-2.7652,-2.7651,-2.765,-2.7649,-2.7649,-2.7418,-2.7385,-2.7494,-2.754,-2.7632,-2.7705,-2.7727,-2.7819,-2.7859,-2.79,-2.7893,-2.7789,-2.7788,-2.7778,-2.7749,-2.7887,-2.7887,-2.7887,-2.7887,-2.7494,-2.7495,-2.761,-2.7683,-2.7756,-2.7787,-2.7907,-2.7955,-2.8,-2.8026,-2.8008,-2.7972,-2.7961,-2.7966,-2.7952,-2.7926,-2.8106,-2.8106,-2.8106,-2.7593,-2.7602,-2.7701,-2.7745,-2.7818,-2.7878,-2.7991,-2.8073,-2.8117,-2.8116,-2.8046,-2.8037,-2.7979,-2.7959,-2.7957,-2.7935,-2.7888,0,0]}]]